Regional Weather Roundup
Issued by NWS

Home | Current Version | Previous Version | Text Only | Print | Product List | Glossary Off
Versions: 1 2 3 4 5 6 7 8 9 10 11 12 13 14 15 16 17 18 19 20 21 22 23 24 25 26 27 28 29 30 31 32 33 34 35 36 37 38 39 40 41 42 43 44 45 46 47 48 49 50

000
ASUS45 KCYS 241010
RWRWY

WYOMING REGIONAL WEATHER ROUNDUP
NATIONAL WEATHER SERVICE CHEYENNE WY
300 AM MST MON NOV 24 2014

NOTE:  "FAIR" INDICATES FEW OR NO CLOUDS BELOW 12,000 FEET
WITH NO SIGNIFICANT WEATHER AND/OR OBSTRUCTIONS TO VISIBILITY.

WYZ001-241100-
YELLOWSTONE NATIONAL PARK

CITY           SKY/WX    TMP DP  RH WIND       PRES   REMARKS
LK YELLOWSTONE   N/A     18  14  84 W7        29.93S WCI   9
W YELLOWSTONE  NOT AVBL

$$
WYZ002>013-054>058-071-098>099-241100-
NORTHERN WYOMING

CITY           SKY/WX    TMP DP  RH WIND       PRES   REMARKS
JACKSON        CLOUDY    27  19  74 W5        29.97R WCI  21
CODY           PTCLDY    34  14  44 NW5       29.84R WCI  30
GREYBULL       CLOUDY    25  20  81 CALM      29.87S
WORLAND        CLOUDY    20  16  84 E3        29.86R
SHERIDAN       CLOUDY    30  21  69 CALM      29.81R
BUFFALO        CLOUDY    30  19  63 NW7       29.80R WCI  23
GILLETTE       NOT AVBL
HULETT           N/A    N/A N/A N/A MISG        N/A
NEWCASTLE      FAIR      23  16  74 N9        29.80S WCI  13

$$
WYZ014>020-022>026-101>103-241100-
CENTRAL WYOMING

CITY           SKY/WX    TMP DP  RH WIND       PRES   REMARKS
BIG PINEY      LGT SNOW  24  15  68 CALM      29.96F
PINEDALE       LGT SNOW  19  18  93 CALM      29.97S
DUBOIS         PTSUNNY   23  12  63 NW22      29.86S HAZE    WCI   8
LANDER         NOT AVBL
RIVERTON       MOCLDY    28  16  60 NW18      29.85F WCI  15
CASPER         CLOUDY    25  13  60 S13       29.83S WCI  14
DOUGLAS        MOCLDY   N/A N/A N/A N9        29.81F

$$
WYZ021-027>030-104>119-241100-
SOUTHERN WYOMING

CITY           SKY/WX    TMP DP  RH WIND       PRES   REMARKS
EVANSTON       LGT SNOW  22  20  92 SW21      30.07S FOG     WCI   6
KEMMERER       LGT SNOW  23  21  93 W18G26    30.01S WCI   9
FORT BRIDGER   CLOUDY    25  22  87 W32G43    30.05R WCI   8
ROCK SPRINGS   LGT SNOW  22  19  89 W20       30.00F FOG     WCI   7
DIXON          FLURRIES  25  16  69 SW17G23   30.02S WCI  11
RAWLINS        MOCLDY    22  15  75 W24G35    29.89R WCI   5
SARATOGA       PTSUNNY   23  18  80 W25G33    29.90F WCI   7
LARAMIE        CLOUDY    20  10  65 W15       29.82F WCI   6
CHEYENNE       MOCLDY    27   8  44 W22G32    29.80S WCI  13
TORRINGTON     PTCLDY    24  13  62 NW7       29.82S WCI  16
PINE BLUFFS    FAIR      30  14  51 NW28G35   29.81S WCI  16

$$


USA.gov is the U.S. government's official web portal to all federal, state and local government web resources and services.